Christchurch Automated, New Zealand

8:09 PM NZDT on February 14, 2016 (GMT +1300)
Christchurch International

Weather History for NZCH - February, 2013

Change the Weather History Date:

Monday, February 11, 2013

  Actual Average Record
Temperature  
Mean Temperature 70 °F -  
Max Temperature 80 °F 70 °F 89 °F (2003)
Min Temperature 59 °F 53 °F 44 °F (2015)
Cooling Degree Days 4    
Growing Degree Days 20 (Base 50)    
Moisture  
Dew Point 56 °F    
Average Humidity 75    
Maximum Humidity 100    
Minimum Humidity 45    
Precipitation  
Precipitation 0.00 in - - ()
Sea Level Pressure  
Sea Level Pressure 29.81 in    
Wind  
Wind Speed 10 mph ()    
Max Wind Speed 29 mph    
Max Gust Speed -    
Visibility 5.3 miles    
Events      
Averages and records for this station are not official NWS values.
T = Trace of Precipitation, MM = Missing Value Source: Averaged Metar Reports

Daily Weather History Graph

Daily Weather History Graph

Search for Another Location

Airport or City:

Trip Planner

Search our weather history database for the weather conditions in past years. The results will help you decide how hot, cold, wet, or windy it might be!

Date:

Astronomy

Feb. 11, 2013 Rise Set
Actual Time 6:43 AM NZDT 8:43 PM NZDT
Civil Twilight 6:12 AM NZDT 9:14 PM NZDT
Nautical Twilight 5:34 AM NZDT 9:52 PM NZDT
Astronomical Twilight 4:53 AM NZDT 10:33 PM NZDT
Moon 7:33 AM NZDT (2/11) 8:44 PM NZDT (2/11)
Length of Visible Light 15h 01m
Length of Day
13h 59m
New Moon, 1% of the Moon is Illuminated
Feb 11
New Moon
Feb 18
First Quarter
Feb 26
Full
Mar 5
Last Quarter
Mar 12
New

Hourly Weather History & Observations

Time (NZDT) Temp. Heat Index Dew Point Humidity Pressure Visibility Wind Dir Wind Speed Gust Speed Precip Events Conditions
12:00 AM 62.6 °F - 60.8 °F 94% 29.86 in 6.2 mi ENE 12.7 mph - N/A   Mostly Cloudy
1:00 AM 62.6 °F - 59.0 °F 88% 29.86 in 6.2 mi ENE 15.0 mph - N/A   Mostly Cloudy
2:00 AM 62.6 °F - 59.0 °F 88% 29.83 in 6.2 mi ENE 11.5 mph - N/A   Mostly Cloudy
3:00 AM 60.8 °F - 59.0 °F 94% 29.83 in 6.2 mi ENE 12.7 mph - N/A   Mostly Cloudy
4:00 AM 62.6 °F - 59.0 °F 88% 29.83 in 6.2 mi ENE 11.5 mph - N/A   Mostly Cloudy
5:00 AM 60.8 °F - 59.0 °F 94% 29.80 in 6.2 mi ENE 9.2 mph - N/A   Mostly Cloudy
6:00 AM 60.8 °F - 59.0 °F 94% 29.77 in 6.2 mi NNE 4.6 mph - N/A   Mostly Cloudy
6:40 AM 60.8 °F - 59.0 °F 94% 29.77 in 4.3 mi North 3.5 mph - N/A   Overcast
7:00 AM 60.8 °F - 59.0 °F 94% 29.77 in 3.7 mi WNW 2.3 mph - N/A   Overcast
8:00 AM 59.0 °F - 59.0 °F 100% 29.77 in 1.2 mi NE 3.5 mph - N/A   Overcast
9:00 AM 60.8 °F - 60.8 °F 100% 29.74 in 1.9 mi North 3.5 mph - N/A   Overcast
9:30 AM 64.4 °F - 60.8 °F 88% 29.74 in 6.2 mi NNW 2.3 mph - N/A   Partly Cloudy
10:00 AM 68.0 °F - 60.8 °F 78% 29.74 in - WSW 1.2 mph - N/A   Clear
11:00 AM 73.4 °F - 59.0 °F 61% 29.74 in - SSW 3.5 mph - N/A   Clear
12:00 PM 80.6 °F 80.8 °F 57.2 °F 45% 29.74 in - South 5.8 mph - N/A   Clear
1:00 PM 73.4 °F - 55.4 °F 53% 29.77 in - South 24.2 mph - N/A   Clear
2:00 PM 69.8 °F - 57.2 °F 64% 29.80 in 6.2 mi SSW 28.8 mph - N/A   Partly Cloudy
3:00 PM 69.8 °F - 51.8 °F 53% 29.83 in 6.2 mi SSW 26.5 mph - N/A   Partly Cloudy
4:00 PM 68.0 °F - 50.0 °F 52% 29.83 in 6.2 mi SSW 23.0 mph - N/A   Partly Cloudy
5:00 PM 68.0 °F - 50.0 °F 52% 29.83 in - SSW 18.4 mph - N/A   Clear
6:00 PM 69.8 °F - 50.0 °F 49% 29.83 in - SSW 17.3 mph - N/A   Clear
7:00 PM 68.0 °F - 46.4 °F 46% 29.83 in - SSW 15.0 mph - N/A   Clear
8:00 PM 66.2 °F - 48.2 °F 52% 29.86 in - SSW 11.5 mph - N/A   Clear
9:00 PM 60.8 °F - 50.0 °F 68% 29.89 in - SSW 10.4 mph - N/A   Clear
10:00 PM 59.0 °F - 50.0 °F 72% 29.92 in - SSW 13.8 mph - N/A   Clear
11:00 PM 59.0 °F - 51.8 °F 77% 29.95 in 6.2 mi SW 9.2 mph - N/A   Mostly Cloudy